Tracking 19817 objects as of 19-Aug-2019
HD Live streaming from Space Station
objects crossing your sky now

SUPERBIRD A

Track SUPERBIRD A now!
SUPERBIRD A is classified as:


NORAD ID: 20040
Int'l Code: 1989-041A
Perigee: 35,916.3 km
Apogee: 35,970.1 km
Inclination: 14.8 °
Period: 1,443.7 minutes
Semi major axis: 42314 km
RCS: 4.409 m2 (large)
Launch date: June 5, 1989
Source: Japan (JPN)
Launch site: FRENCH GUIANA (FRGUI)
aabbcc
Your satellite tracking list
Your tracking list is empty




NASA's NSSDC Master Catalog

Two Line Element Set (TLE):
1 20040U 89041A   19228.42202876 +.00000064 +00000-0 +00000-0 0  9991
2 20040 014.8027 352.4599 0006362 027.7536 327.6117 00.99740907109556
Source of the keplerian elements: AFSPC